FW9483 Weather Reports


time (UTC)temp
C
wind
direction
speed
KPH
gust
KPH
rain 1hr
cm
rain 24hr
cm
rain mn
cm
humidity
%
barometer
mb
20260505082516 11 360 3.2 4.8 0.00 0.00 0.00 69 1009.5
20260505081516 11 301 1.6 3.2 0.00 0.00 0.00 69 1009.6
20260505080516 10 300 1.6 4.8 0.00 0.00 0.00 69 1009.5
20260505075516 11 245 0.0 1.6 0.00 0.00 0.00 68 1009.7
20260505074516 11 218 0.0 3.2 0.00 0.00 0.00 67 1009.8
20260505073516 11 218 1.6 4.8 0.00 0.00 0.00 66 1009.7
20260505072516 11 190 3.2 8.0 0.00 0.00 0.00 65 1009.6
20260505071536 12 252 1.6 6.4 0.00 0.00 0.00 64 1009.7
20260505070516 12 196 3.2 6.4 0.00 0.00 0.00 63 1009.6
20260505065516 12 209 8.0 16.1 0.00 0.00 0.00 62 1009.5
20260505064516 12 231 4.8 14.5 0.00 0.00 0.00 62 1009.5
20260505063516 12 227 4.8 12.9 0.00 0.00 0.00 62 1009.6
20260505062536 12 202 4.8 22.5 0.00 0.00 0.00 62 1009.6
20260505061516 12 249 6.4 16.1 0.00 0.00 0.00 61 1009.7
20260505060536 12 221 4.8 17.7 0.00 0.00 0.00 61 1009.7
20260505055516 12 225 1.6 6.4 0.00 0.00 0.00 61 1009.7
20260505054516 12 212 3.2 12.9 0.00 0.00 0.00 61 1009.8
20260505053516 12 200 4.8 12.9 0.00 0.00 0.00 60 1009.8
20260505052516 12 234 6.4 20.9 0.00 0.00 0.00 61 1009.7
20260505051536 12 158 3.2 19.3 0.00 0.00 0.00 60 1009.7
20260505050516 12 216 4.8 11.3 0.00 0.00 0.00 61 1009.8
20260505041516 13 192 4.8 12.9 0.00 0.00 0.00 59 1009.9
20260505040516 13 182 4.8 17.7 0.00 0.00 0.00 60 1009.9
20260505035516 13 200 4.8 16.1 0.00 0.00 0.00 60 1009.8
20260505034516 12 217 4.8 17.7 0.00 0.00 0.00 60 1009.7
20260505033516 13 202 4.8 11.3 0.00 0.00 0.00 60 1009.7
20260505032536 13 199 6.4 19.3 0.00 0.00 0.00 60 1009.9
20260505031516 13 202 6.4 17.7 0.00 0.00 0.00 59 1010.0
20260505030536 13 206 4.8 12.9 0.00 0.00 0.00 59 1010.0
20260505025516 13 195 4.8 22.5 0.00 0.00 0.00 59 1010.0
20260505024516 12 205 4.8 17.7 0.00 0.00 0.00 60 1010.0
20260505023516 13 203 3.2 8.0 0.00 0.00 0.00 59 1010.0
20260505022516 13 215 4.8 12.9 0.00 0.00 0.00 58 1010.0
20260505021516 13 196 8.0 17.7 0.00 0.00 0.00 57 1010.0
20260505020516 13 206 4.8 14.5 0.00 0.00 0.00 58 1010.0
20260505015516 13 214 3.2 11.3 0.00 0.00 0.00 58 1010.0
20260505014516 13 211 4.8 17.7 0.00 0.00 0.00 57 1010.0
20260505013516 13 202 4.8 17.7 0.00 0.00 0.00 56 1010.0
20260505012516 13 203 6.4 16.1 0.00 0.00 0.00 56 1009.9
20260505011556 13 192 4.8 17.7 0.00 0.00 0.00 55 1009.7
20260505010536 13 191 3.2 12.9 0.00 0.00 0.00 56 1009.6
20260505005516 13 229 1.6 4.8 0.00 0.00 0.00 55 1009.4
20260505004516 13 239 1.6 4.8 0.00 0.00 0.00 53 1009.3
20260505003516 14 234 1.6 6.4 0.00 0.00 0.00 52 1009.2
20260505002516 15 223 0.0 3.2 0.00 0.00 0.00 51 1009.0
20260505001516 15 223 1.6 4.8 0.00 0.00 0.00 50 1008.9
20260505000516 15 6 1.6 4.8 0.00 0.00 0.00 50 1008.7
20260504235516 16 191 0.0 6.4 0.00 0.00 0.00 48 1008.8
20260504234516 16 191 1.6 8.0 0.00 0.00 0.00 47 1008.8
20260504233536 16 231 4.8 17.7 0.00 0.00 0.00 47 1008.7
20260504232516 16 206 4.8 12.9 0.00 0.00 0.00 46 1008.6
20260504231536 16 212 3.2 11.3 0.00 0.00 0.00 46 1008.4
20260504230517 16 192 4.8 14.5 0.00 0.00 0.00 45 1008.3
20260504225516 17 196 6.4 16.1 0.00 0.00 0.00 44 1008.2
20260504224516 17 201 6.4 16.1 0.00 0.00 0.00 42 1008.2
20260504223516 18 226 6.4 17.7 0.00 0.00 0.00 41 1008.1
20260504222516 18 236 6.4 20.9 0.00 0.00 0.00 40 1008.0
20260504221516 18 194 8.0 27.4 0.00 0.00 0.00 40 1008.0
20260504220516 18 228 6.4 12.9 0.00 0.00 0.00 40 1008.0
20260504215516 18 224 8.0 22.5 0.00 0.00 0.00 39 1008.1
20260504214516 18 225 6.4 11.3 0.00 0.00 0.00 40 1008.1
20260504213516 18 220 6.4 17.7 0.00 0.00 0.00 41 1008.2
20260504212536 18 218 6.4 19.3 0.00 0.00 0.00 41 1008.1
20260504211516 18 221 6.4 27.4 0.00 0.00 0.00 42 1008.3
20260504210516 18 229 8.0 19.3 0.00 0.00 0.00 41 1008.5
20260504205516 18 237 9.7 19.3 0.00 0.00 0.00 42 1008.5
20260504204516 17 240 9.7 25.7 0.00 0.00 0.00 41 1008.6
20260504203516 18 205 8.0 16.1 0.00 0.00 0.00 40 1008.7
20260504202516 18 227 8.0 24.1 0.00 0.00 0.00 42 1008.7
20260504201516 17 206 9.7 24.1 0.00 0.00 0.00 41 1008.8
20260504200516 18 204 6.4 17.7 0.00 0.00 0.00 41 1008.8
20260504195536 18 252 9.7 24.1 0.00 0.00 0.00 41 1008.8
20260504194516 18 238 6.4 20.9 0.00 0.00 0.00 42 1008.9
20260504193536 17 227 8.0 25.7 0.00 0.00 0.00 44 1009.0
20260504192516 17 234 6.4 20.9 0.00 0.00 0.00 44 1009.0
20260504191516 17 211 6.4 17.7 0.00 0.00 0.00 44 1009.1
20260504190516 17 209 8.0 20.9 0.00 0.00 0.00 46 1009.1
20260504185516 17 200 11.3 22.5 0.00 0.00 0.00 44 1009.2
20260504184516 16 220 6.4 22.5 0.00 0.00 0.00 46 1009.4
20260504183516 -17 237 8.0 8.0 0.00 0.00 0.00
20260504182516 16 204 6.4 17.7 0.00 0.00 0.00 46 1009.5
20260504181516 16 201 9.7 22.5 0.00 0.00 0.00 46 1009.4
20260504180516 16 232 9.7 30.6 0.00 0.00 0.00 45 1009.4
20260504175516 16 235 6.4 22.5 0.00 0.00 0.00 44 1009.4
20260504174516 17 174 6.4 16.1 0.00 0.00 0.00 44 1009.4
20260504173516 16 198 11.3 27.4 0.00 0.00 0.00 45 1009.4
20260504172516 15 226 9.7 22.5 0.00 0.00 0.00 47 1009.5
20260504171516 15 203 11.3 25.7 0.00 0.00 0.00 47 1009.6
20260504170516 15 219 8.0 19.3 0.00 0.00 0.00 48 1009.7
20260504150516 12 253 9.7 19.3 0.00 0.00 0.00 51 1010.7
20260504140516 11 215 8.0 19.3 0.00 0.00 0.00 54 1011.0
20260504130556 9 212 8.0 20.9 0.00 0.00 0.00 56 1011.5
20260504110517 5 323 1.6 4.8 0.00 0.00 0.00 71 1011.4
20260504100517 3 18 3.2 4.8 0.00 0.00 0.00 73 1011.5